Simultaneous Nadir Overpasses (SNOs) Predictions

Prediction of SNOs between NOAA-20 and AQUA Satellite Orbit:

Table of predicted SNOs for the next 14.0 days since TLE Epoch: 11/30/2018
Index Date (NOAA-20) Time (NOAA-20) Lat,Lon (NOAA-20) SZA (NOAA-20 ) Date (AQUA) Time (AQUA) Lat,Lon (AQUA) SZA (AQUA ) Distance(km) Time Diff (sec)
1 12/01/2018 14:29:35 -75.98, 21.54 62.08 12/01/2018 14:29:49 -75.98, 21.52 62.09 0.44 14
2 12/01/2018 15:19:57 76.98,-167.44 116.78 12/01/2018 15:18:54 76.97,-167.52 116.86 2.19 63
3 12/04/2018 05:55:58 75.31, -32.13 119.09 12/04/2018 05:57:04 75.31, -32.19 119.04 1.83 66
4 12/04/2018 06:46:21 -76.37, 138.68 62.09 12/04/2018 06:46:10 -76.37, 138.62 62.07 1.42 11
5 12/06/2018 22:12:43 75.75, 85.03 118.99 12/06/2018 22:13:24 75.75, 84.94 118.98 2.60 41
6 12/06/2018 23:03:16 -76.35,-105.63 61.68 12/06/2018 23:02:39 -76.36,-105.53 61.67 2.94 37
7 12/09/2018 14:29:37 75.73,-159.29 119.36 12/09/2018 14:29:52 75.73,-159.22 119.33 1.95 15
8 12/09/2018 15:20:00 -76.77, 11.73 61.83 12/09/2018 15:18:58 -76.77, 11.76 61.78 0.77 62
9 12/12/2018 05:55:59 -75.19, 147.51 59.76 12/12/2018 05:57:06 -75.18, 147.47 59.81 1.29 67
10 12/12/2018 06:46:21 76.20, -41.91 119.11 12/12/2018 06:46:11 76.20, -41.90 119.12 0.11 10




NCC Satellite Simultaneous Nadir Overpasses (SNOs) Prediction Service
